World > North America > United States > Mississippi > Steens  

Steens, MS Hourly Weather Updates

Feedback E-mail the Weather

Quick Clicks

Steens, MS Weather Maps

°F °C°F °C
Steens Weather Map
UTC Time: 5/22/2024, 07:50
Your Time:

Steens, MS Regional Weather

Expires:202405220800;;644634
ASUS44 KJAN 220710
RWRMS 

MISSISSIPPI HOURLY WEATHER ROUNDUP
NATIONAL WEATHER SERVICE JACKSON MS
200 AM CDT WED MAY 22 2024

NOTE: "FAIR: INDICATES FEW OR NO CLOUDS BELOW 12,000 FEET WITH NO
SIGNIFICANT WEATHER AND/OR OBSTRUCTIONS TO VISIBILITY.


MSZ003>006-009-014>017-022>024-029>033-037>039-220800-
NORTHEAST MISSISSIPPI
  
CITY           SKY/WX    TMP DP  RH WIND       PRES   REMARKS
ABERDEEN       CLOUDY    70  66  88 CALM      29.96F                  
COLUMBUS AFB   MOCLDY    70  65  84 CALM      29.91S                  
CORINTH        CLOUDY    73  64  73 S13       29.89F                  
GOLDN TRIANGLE MOCLDY    71  66  84 CALM      29.97R                  
IUKA             N/A     72  65  79 VRB5      29.95S                  
LOUISVILLE     MOCLDY    72  64  78 CALM      30.00R                  
STARKVILLE     MOCLDY    68  66  94 CALM      29.94S                  
TUPELO         CLOUDY    73  64  73 S5        29.93F                  
$$


SKY/WX - Weather  TMP - Temperature  DP - Dew Point  RH - Humidity
WIND - Wind Direction/Speed PRES - Barometric Pressure VSB - Visibility
WCI - Wind Chill Index E13G22 Wind - East Wind 13 mph/Gusts of 22 mph

Trending Headlines

Trending Entertainment Headlines

Steens Radar Loop

Use the map search tool if you want to place a location marker on the radar map...

Steens Quick Facts

National Two Day Weather Forecast


E-mail the Steens Weather Forecast

Voice your opinion or tell us about page issues...